Location: Zagreb
(45.8000°N, 16.0000°E)
Time: 15:05:02
(UTC+02:00)

Vanguard 1 - Pass Details

Date: 15 August 2022
Orbit: 649 x 3832 km, 34.2° (Epoch: 25 September)

Event Time Altitude Azimuth Distance (km) Brightness Sun altitude
Rises 09:45:38 0° 278° (W) 7,170 14.0 38.3°
Reaches altitude 10° 09:50:29 10° 272° (W) 6,450 13.9 39.1°
Maximum altitude 10:09:55 40° 213° (SSW) 4,846 13.9 42.1°
Drops below altitude 10° 10:28:49 10° 152° (SSE) 6,235 15.0 45.0°
Sets 10:33:29 0° 146° (SE) 6,916 15.0 45.7°
